Sheridan, WY

10:28 PM MDT on September 29, 2016 (GMT -0600)
Sheridan County

Weather History for KSHR - August, 2014

Change the Weather History Date:

Wednesday, August 27, 2014

  Actual Average Record
Temperature  
Mean Temperature 66 °F 66 °F  
Max Temperature 85 °F 84 °F 99 °F (1937)
Min Temperature 46 °F 49 °F 35 °F (1976)
Degree Days  
Heating Degree Days 0 2  
Month to date heating degree days 34 25  
Since 1 June heating degree days 225 200  
Since 1 July heating degree days 43 51  
Cooling Degree Days 1 3  
Month to date cooling degree days 124 147  
Year to date cooling degree days 315 379  
Since 1 June cooling degree days 307 375  
Growing Degree Days 15 (Base 50)    
Moisture  
Dew Point 49 °F    
Average Humidity 62    
Maximum Humidity 93    
Minimum Humidity 31    
Precipitation  
Precipitation 0.00 in 0.03 in 0.97 in (1956)
Month to date precipitation 0.89 0.61  
Year to date precipitation 10.91 9.94  
Sea Level Pressure  
Sea Level Pressure 30.04 in    
Wind  
Wind Speed 2 mph (SW)    
Max Wind Speed 16 mph    
Max Gust Speed 20 mph    
Visibility 10 miles    
Events      
T = Trace of Precipitation, MM = Missing Value Source: NWS Daily Summary

Daily Weather History Graph

Daily Weather History Graph

Search for Another Location

Airport or City:

Trip Planner

Search our weather history database for the weather conditions in past years. The results will help you decide how hot, cold, wet, or windy it might be!

Date:

Astronomy

Aug. 27, 2014 Rise Set
Actual Time 6:24 AM MDT 7:53 PM MDT
Civil Twilight 5:53 AM MDT 8:23 PM MDT
Nautical Twilight 5:16 AM MDT 9:00 PM MDT
Astronomical Twilight 4:37 AM MDT 9:40 PM MDT
Moon 8:30 AM MDT (8/27) 8:39 PM MDT (8/27)
Length of Visible Light 14h 30m
Length of Day
13h 29m
Waxing Crescent, 4% of the Moon is Illuminated
Aug 27
Waxing Crescent
Sep 2
First Quarter
Sep 8
Full
Sep 15
Last Quarter
Sep 24
New

Hourly Weather History & Observations

Time (MDT) Temp. Dew Point Humidity Pressure Visibility Wind Dir Wind Speed Gust Speed Precip Events Conditions
12:53 AM 52.0 °F 48.0 °F 86% 30.10 in 10.0 mi SW 5.8 mph - N/A   Clear
1:53 AM 52.0 °F 48.0 °F 86% 30.09 in 10.0 mi SSE 3.5 mph - N/A   Clear
2:53 AM 50.0 °F 46.0 °F 86% 30.09 in 10.0 mi Calm Calm - N/A   Clear
3:53 AM 50.0 °F 45.0 °F 83% 30.08 in 10.0 mi Calm Calm - N/A   Clear
4:53 AM 48.9 °F 46.0 °F 90% 30.07 in 10.0 mi Calm Calm - N/A   Clear
5:53 AM 46.9 °F 44.1 °F 90% 30.08 in 10.0 mi Calm Calm - N/A   Clear
6:53 AM 48.9 °F 45.0 °F 86% 30.08 in 10.0 mi Calm Calm - N/A   Clear
7:53 AM 55.0 °F 50.0 °F 83% 30.09 in 10.0 mi NNE 4.6 mph - N/A   Clear
8:53 AM 57.2 °F 51.8 °F 82% 30.13 in 10.0 mi Calm Calm - N/A   Clear
9:53 AM 62.1 °F 50.0 °F 65% 30.08 in 10.0 mi Calm Calm - N/A   Clear
10:53 AM 72.0 °F 52.0 °F 49% 30.06 in 10.0 mi North 3.5 mph - N/A   Clear
11:53 AM 73.9 °F 50.0 °F 43% 30.04 in 10.0 mi Calm Calm - N/A   Clear
12:53 PM 80.6 °F 51.8 °F 37% 30.10 in 10.0 mi Variable 3.5 mph - N/A   Clear
1:53 PM 79.0 °F 50.0 °F 36% 30.01 in 10.0 mi SE 8.1 mph - N/A   Clear
2:53 PM 82.9 °F 48.0 °F 29% 29.99 in 10.0 mi NW 5.8 mph - N/A   Clear
3:53 PM 78.1 °F 48.0 °F 35% 29.98 in 10.0 mi West 6.9 mph - N/A   Clear
4:53 PM 80.1 °F 48.0 °F 32% 29.97 in 10.0 mi North 4.6 mph - N/A   Clear
5:53 PM 79.0 °F 48.9 °F 35% 29.99 in 10.0 mi Calm Calm - N/A   Partly Cloudy
6:53 PM 77.0 °F 55.0 °F 47% 29.98 in 10.0 mi Calm Calm - N/A   Overcast
7:53 PM 73.0 °F 54.0 °F 51% 29.98 in 10.0 mi ESE 5.8 mph - N/A   Mostly Cloudy
8:53 PM 64.9 °F 53.1 °F 65% 30.01 in 10.0 mi SSW 3.5 mph - N/A   Clear
9:53 PM 62.1 °F 53.1 °F 72% 30.00 in 10.0 mi SSE 4.6 mph - N/A   Clear
10:53 PM 60.1 °F 53.1 °F 78% 29.98 in 10.0 mi Calm Calm - N/A   Clear
11:53 PM 55.0 °F 50.0 °F 83% 29.98 in 10.0 mi WSW 3.5 mph - N/A   Clear